RYR50AM LEAL-EYKA

Flight info

Callsign RYR50AM
Flight time N/A
Altitude 34000
Route MITOS N851 RUXET DCT IZA DCT TUKRO DCT ASMOT N851 PTC DCT CDP DCT CHELY N853 LUMAS DCT UNANA DCT STP DCT RAPED DCT PIGOS DCT EKSID DCT NOSTA DCT NOPMU DCT MALUG DCT NAVTI DCT DESEN DCT UVROB N871 SUWGI M857 BOKSU DCT ADIDU
Aircraft B738/M-SDE2E3FGHIRWXY/LB1

Departure

Time 2026-04-29 17:03
Airport Alicante-Elche Miguel Hernández Airport (LEAL)

Arrival

Time N/A
Airport Kaunas International Airport (EYKA)
Time Latitude Longitude Altitude Speed Heading
2026-04-29 16:39 38.28463 -0.55802 100 ft 0 kts 10°
2026-04-29 16:57 38.28481 -0.55802 100 ft 5 kts 346°
2026-04-29 16:57 38.28503 -0.55839 101 ft 3 kts 282°
2026-04-29 16:58 38.28477 -0.55864 101 ft 7 kts 186°
2026-04-29 16:58 38.28427 -0.55883 100 ft 8 kts 225°
2026-04-29 16:58 38.28421 -0.55964 99 ft 10 kts 281°
2026-04-29 16:58 38.28432 -0.56069 101 ft 12 kts 278°
2026-04-29 16:59 38.28447 -0.56184 104 ft 13 kts 279°
2026-04-29 16:59 38.28465 -0.56309 106 ft 14 kts 281°
2026-04-29 16:59 38.28482 -0.56433 111 ft 13 kts 280°
2026-04-29 16:59 38.28499 -0.56547 116 ft 12 kts 278°
2026-04-29 17:00 38.28514 -0.56664 121 ft 13 kts 279°
2026-04-29 17:00 38.28528 -0.56761 126 ft 10 kts 280°
2026-04-29 17:00 38.28538 -0.56833 131 ft 7 kts 279°
2026-04-29 17:00 38.28549 -0.56915 135 ft 12 kts 279°
2026-04-29 17:01 38.28565 -0.57033 140 ft 14 kts 280°
2026-04-29 17:01 38.28583 -0.57163 145 ft 15 kts 280°
2026-04-29 17:01 38.28603 -0.57299 148 ft 13 kts 280°
2026-04-29 17:01 38.28617 -0.57402 152 ft 9 kts 280°
2026-04-29 17:02 38.28614 -0.57469 155 ft 7 kts 247°
2026-04-29 17:02 38.28555 -0.57508 155 ft 12 kts 190°
2026-04-29 17:02 38.28469 -0.57507 153 ft 12 kts 144°
2026-04-29 17:02 38.28426 -0.57305 145 ft 50 kts 101°
2026-04-29 17:03 38.28319 -0.56544 114 ft 121 kts 100°
2026-04-29 17:03 38.28133 -0.55205 100 ft 175 kts 102°
2026-04-29 17:03 38.27908 -0.53651 747 ft 178 kts 102°
2026-04-29 17:03 38.27686 -0.52105 1406 ft 186 kts 101°
2026-04-29 17:04 38.27467 -0.50348 1859 ft 207 kts 95°
2026-04-29 17:04 38.27768 -0.48477 2219 ft 230 kts 61°
2026-04-29 17:04 38.28786 -0.46781 2567 ft 252 kts 49°
2026-04-29 17:04 38.29966 -0.45014 2967 ft 269 kts 54°
2026-04-29 17:05 38.31014 -0.43046 3760 ft 269 kts 62°
2026-04-29 17:05 38.31763 -0.40900 4552 ft 268 kts 68°
2026-04-29 17:05 38.32537 -0.38678 5203 ft 274 kts 66°
2026-04-29 17:05 38.33337 -0.36381 5863 ft 279 kts 68°
2026-04-29 17:06 38.34104 -0.34070 6563 ft 283 kts 68°
2026-04-29 17:06 38.34865 -0.31748 7306 ft 284 kts 68°
2026-04-29 17:06 38.35641 -0.29370 7998 ft 288 kts 68°
2026-04-29 17:06 38.36438 -0.26947 8694 ft 293 kts 67°
2026-04-29 17:07 38.37252 -0.24518 9431 ft 295 kts 67°
2026-04-29 17:07 38.38070 -0.22069 10127 ft 299 kts 67°
2026-04-29 17:07 38.38934 -0.19476 10298 ft 323 kts 67°
2026-04-29 17:07 38.39856 -0.16705 10672 ft 338 kts 67°
2026-04-29 17:08 38.40788 -0.13903 11289 ft 344 kts 67°
2026-04-29 17:08 38.41753 -0.11000 11979 ft 348 kts 67°
2026-04-29 17:08 38.42707 -0.08127 12649 ft 352 kts 67°
2026-04-29 17:08 38.43684 -0.05180 13333 ft 356 kts 67°
2026-04-29 17:09 38.44672 -0.02195 14012 ft 360 kts 67°
2026-04-29 17:09 38.45650 0.00790 14674 ft 363 kts 67°
2026-04-29 17:09 38.46630 0.03844 15333 ft 367 kts 68°
2026-04-29 17:09 38.47627 0.06956 15981 ft 371 kts 68°
2026-04-29 17:10 38.48622 0.10053 16597 ft 374 kts 68°
2026-04-29 17:10 38.49638 0.13218 17204 ft 378 kts 68°
2026-04-29 17:10 38.50655 0.16392 17778 ft 382 kts 68°
2026-04-29 17:10 38.51685 0.19606 18394 ft 384 kts 68°
2026-04-29 17:11 38.52715 0.22828 18968 ft 387 kts 68°
2026-04-29 17:11 38.53759 0.26093 19513 ft 390 kts 68°
2026-04-29 17:11 38.54795 0.29341 20050 ft 393 kts 68°
2026-04-29 17:11 38.55854 0.32663 20583 ft 396 kts 68°
2026-04-29 17:12 38.56908 0.35974 21081 ft 399 kts 68°
2026-04-29 17:12 38.57975 0.39328 21570 ft 402 kts 68°
2026-04-29 17:12 38.59040 0.42681 22053 ft 404 kts 68°
2026-04-29 17:12 38.59758 0.44944 22359 ft 406 kts 68°
2026-04-29 17:13 38.61188 0.49456 22975 ft 409 kts 68°
2026-04-29 17:13 38.62259 0.52840 23406 ft 412 kts 68°
2026-04-29 17:13 38.63328 0.56226 23834 ft 414 kts 69°
2026-04-29 17:13 38.64429 0.59715 24242 ft 417 kts 69°
2026-04-29 17:14 38.65531 0.63213 24663 ft 419 kts 69°
2026-04-29 17:14 38.66645 0.66754 25060 ft 421 kts 69°
2026-04-29 17:14 38.67762 0.70304 25447 ft 424 kts 69°
2026-04-29 17:14 38.68874 0.73845 25824 ft 426 kts 69°
2026-04-29 17:15 38.70006 0.77455 26199 ft 428 kts 69°
2026-04-29 17:15 38.71142 0.81081 26553 ft 430 kts 69°
2026-04-29 17:15 38.72270 0.84687 26904 ft 432 kts 69°
2026-04-29 17:15 38.73405 0.88318 27236 ft 434 kts 69°
2026-04-29 17:16 38.74553 0.91998 27578 ft 436 kts 69°
2026-04-29 17:16 38.75702 0.95685 27900 ft 438 kts 70°
2026-04-29 17:16 38.76844 0.99358 28119 ft 442 kts 69°
2026-04-29 17:16 38.78028 1.03170 28169 ft 451 kts 69°
2026-04-29 17:17 38.80409 1.10845 28309 ft 465 kts 68°
2026-04-29 17:17 38.81607 1.14717 28607 ft 465 kts 68°
2026-04-29 17:17 38.82791 1.18547 29013 ft 463 kts 68°
2026-04-29 17:18 38.83989 1.22427 29331 ft 463 kts 68°
2026-04-29 17:18 38.85177 1.26281 29660 ft 463 kts 68°
2026-04-29 17:18 38.86358 1.30120 29997 ft 462 kts 68°
2026-04-29 17:18 38.87546 1.33985 30333 ft 461 kts 68°
2026-04-29 17:19 38.88737 1.37864 30644 ft 461 kts 68°
2026-04-29 17:19 38.89940 1.41790 30937 ft 461 kts 68°
2026-04-29 17:19 38.91129 1.45678 31234 ft 460 kts 68°
2026-04-29 17:19 38.92303 1.49539 31491 ft 461 kts 68°
2026-04-29 17:20 38.93447 1.53406 31765 ft 461 kts 68°
2026-04-29 17:20 38.94595 1.57323 32016 ft 461 kts 68°
2026-04-29 17:20 38.95755 1.61273 32268 ft 461 kts 68°
2026-04-29 17:20 38.96898 1.65147 32495 ft 462 kts 68°
2026-04-29 17:21 38.98070 1.69114 32720 ft 463 kts 68°
2026-04-29 17:21 38.99235 1.73056 32974 ft 463 kts 68°
2026-04-29 17:21 39.00394 1.76981 33185 ft 464 kts 68°
2026-04-29 17:21 39.01549 1.80914 33398 ft 464 kts 68°
2026-04-29 17:22 39.02705 1.84861 33616 ft 465 kts 68°
2026-04-29 17:22 39.03851 1.88767 33789 ft 466 kts 68°
2026-04-29 17:22 39.04998 1.92680 33905 ft 465 kts 68°
2026-04-29 17:22 39.06117 1.96545 33911 ft 453 kts 68°
2026-04-29 17:23 39.08306 2.04142 33913 ft 457 kts 68°
2026-04-29 17:23 39.10606 2.12056 33912 ft 467 kts 68°
2026-04-29 17:24 39.12919 2.20021 33911 ft 469 kts 68°
2026-04-29 17:24 39.15205 2.28040 33912 ft 467 kts 69°
2026-04-29 17:25 39.17461 2.36005 33912 ft 466 kts 68°
2026-04-29 17:25 39.19712 2.43915 33912 ft 467 kts 68°
2026-04-29 17:26 39.21958 2.51777 33912 ft 466 kts 68°
2026-04-29 17:26 39.24219 2.59657 33912 ft 467 kts 68°
2026-04-29 17:27 39.26480 2.67562 33912 ft 467 kts 69°
2026-04-29 17:27 39.28701 2.75482 33912 ft 467 kts 69°
2026-04-29 17:28 39.30904 2.83402 33912 ft 467 kts 69°
2026-04-29 17:28 39.33160 2.91380 33911 ft 467 kts 68°
2026-04-29 17:29 39.35437 2.99435 33912 ft 470 kts 68°
2026-04-29 17:29 39.37684 3.07520 33911 ft 469 kts 68°
2026-04-29 17:30 39.39923 3.15617 33912 ft 469 kts 67°
2026-04-29 17:30 39.42730 3.23253 33913 ft 461 kts 49°
2026-04-29 17:31 39.44950 3.26329 33913 ft 456 kts 37°
2026-04-29 17:31 39.47536 3.28774 33912 ft 451 kts 26°
2026-04-29 17:31 39.53168 3.32452 33911 ft 449 kts 22°
2026-04-29 17:32 39.58836 3.36207 33910 ft 450 kts 24°
2026-04-29 17:32 39.64475 3.39953 33915 ft 449 kts 23°
2026-04-29 17:33 39.70118 3.43635 33919 ft 449 kts 24°
2026-04-29 17:33 39.75631 3.47783 33925 ft 450 kts 27°
2026-04-29 17:34 39.81081 3.52034 33929 ft 451 kts 26°
2026-04-29 17:34 39.86569 3.56204 33933 ft 451 kts 26°
2026-04-29 17:35 39.94790 3.62523 33937 ft 451 kts 27°
2026-04-29 17:36 40.00248 3.66711 33939 ft 451 kts 27°
2026-04-29 17:36 40.05749 3.70894 33938 ft 450 kts 27°
2026-04-29 17:37 40.11228 3.75148 33939 ft 451 kts 27°
2026-04-29 17:37 40.16707 3.79404 33939 ft 452 kts 27°
2026-04-29 17:38 40.22235 3.83636 33939 ft 452 kts 27°
2026-04-29 17:38 40.27770 3.87863 33938 ft 451 kts 27°
2026-04-29 17:39 40.33247 3.92124 33939 ft 451 kts 27°
2026-04-29 17:39 40.38730 3.96427 33939 ft 452 kts 27°
2026-04-29 17:40 40.44206 4.00703 33938 ft 452 kts 27°
2026-04-29 17:40 40.49674 4.04985 33939 ft 451 kts 27°
2026-04-29 17:41 40.55169 4.09284 33938 ft 452 kts 27°
2026-04-29 17:41 40.60632 4.13586 33939 ft 451 kts 27°
2026-04-29 17:42 40.66095 4.17857 33939 ft 452 kts 27°
2026-04-29 17:42 40.71547 4.22082 33938 ft 451 kts 27°
2026-04-29 17:43 40.77042 4.26371 33938 ft 451 kts 27°
2026-04-29 17:43 40.82506 4.30646 33939 ft 452 kts 27°
2026-04-29 17:44 40.87982 4.35001 33939 ft 452 kts 27°
2026-04-29 17:44 40.93492 4.39408 33939 ft 451 kts 27°
2026-04-29 17:45 40.98970 4.43744 33938 ft 451 kts 26°
2026-04-29 17:45 41.04504 4.48017 33938 ft 449 kts 22°
2026-04-29 17:46 41.10355 4.51049 33939 ft 440 kts
2026-04-29 17:46 41.16431 4.52547 33939 ft 437 kts
2026-04-29 17:47 41.22507 4.54094 33939 ft 437 kts
2026-04-29 17:47 41.28582 4.55608 33939 ft 437 kts
2026-04-29 17:48 41.34648 4.57109 33939 ft 437 kts
2026-04-29 17:48 41.40741 4.58613 33939 ft 437 kts
2026-04-29 17:49 41.46839 4.60117 33939 ft 437 kts
2026-04-29 17:49 41.52903 4.61613 33939 ft 437 kts
2026-04-29 17:50 41.58994 4.63118 33939 ft 436 kts
2026-04-29 17:50 41.65059 4.64619 33953 ft 436 kts
2026-04-29 17:51 41.71108 4.66598 33973 ft 445 kts 15°
2026-04-29 17:51 41.73940 4.68440 33983 ft 454 kts 26°
2026-04-29 17:51 41.76521 4.71040 33994 ft 462 kts 37°
2026-04-29 17:52 41.81219 4.77282 33993 ft 465 kts 39°
2026-04-29 17:52 41.85915 4.83384 33993 ft 463 kts 38°
2026-04-29 17:53 41.90614 4.89564 33993 ft 459 kts 38°
2026-04-29 17:53 41.95221 4.95661 33993 ft 455 kts 38°
2026-04-29 17:54 41.99768 5.01698 33993 ft 450 kts 37°
2026-04-29 17:54 42.04275 5.07700 33996 ft 446 kts 37°
2026-04-29 17:55 42.08762 5.13688 34003 ft 447 kts 37°
2026-04-29 17:55 42.13294 5.19750 34005 ft 449 kts 37°
2026-04-29 17:56 42.17765 5.25750 34003 ft 448 kts 37°
2026-04-29 17:56 42.22264 5.31799 34000 ft 448 kts 37°
2026-04-29 17:57 42.26756 5.37852 34003 ft 448 kts 37°
2026-04-29 17:57 42.31191 5.43840 34010 ft 448 kts 37°
2026-04-29 17:58 42.35637 5.49856 34016 ft 448 kts 37°
2026-04-29 17:58 42.40083 5.55885 34020 ft 448 kts 37°
2026-04-29 17:59 42.44520 5.61916 34020 ft 448 kts 37°
2026-04-29 17:59 42.49000 5.68017 34020 ft 448 kts 38°
2026-04-29 18:00 42.53436 5.74071 34020 ft 448 kts 38°
2026-04-29 18:00 42.57909 5.80190 34020 ft 449 kts 38°
2026-04-29 18:01 42.62333 5.86254 34020 ft 448 kts 38°
2026-04-29 18:01 42.66746 5.92315 34020 ft 449 kts 38°
2026-04-29 18:02 42.71183 5.98423 34020 ft 448 kts 38°
2026-04-29 18:02 42.75610 6.04531 34020 ft 448 kts 38°
2026-04-29 18:03 42.80010 6.10613 34020 ft 448 kts 38°
2026-04-29 18:03 42.84427 6.16733 34020 ft 448 kts 38°
2026-04-29 18:04 42.89104 6.22404 34020 ft 442 kts 32°
2026-04-29 18:04 42.93901 6.27809 34020 ft 445 kts 32°
2026-04-29 18:05 42.98680 6.33305 34020 ft 449 kts 32°
2026-04-29 18:05 43.03521 6.38867 34020 ft 453 kts 31°
2026-04-29 18:06 43.08376 6.44466 34019 ft 454 kts 31°
2026-04-29 18:06 43.13187 6.50028 34020 ft 453 kts 31°
2026-04-29 18:07 43.18044 6.55653 34020 ft 453 kts 32°
2026-04-29 18:07 43.22594 6.61838 34020 ft 464 kts 43°
2026-04-29 18:08 43.26477 6.69031 34020 ft 469 kts 46°
2026-04-29 18:08 43.30371 6.76268 34020 ft 468 kts 46°
2026-04-29 18:09 43.34254 6.83557 34020 ft 469 kts 46°
2026-04-29 18:09 43.38101 6.90843 34020 ft 469 kts 46°
2026-04-29 18:10 43.41944 6.98151 34020 ft 469 kts 46°
2026-04-29 18:10 43.45782 7.05477 34020 ft 469 kts 47°
2026-04-29 18:11 43.49607 7.12804 34020 ft 468 kts 48°
2026-04-29 18:11 43.53417 7.20121 34020 ft 468 kts 48°
2026-04-29 18:12 43.57245 7.27494 34020 ft 467 kts 48°
2026-04-29 18:12 43.61044 7.34830 34020 ft 467 kts 49°
2026-04-29 18:13 43.64831 7.42160 34020 ft 467 kts 49°
2026-04-29 18:13 43.68621 7.49517 34020 ft 468 kts 49°
2026-04-29 18:14 43.72400 7.56870 34020 ft 468 kts 49°
2026-04-29 18:14 43.76204 7.64291 34020 ft 467 kts 48°
2026-04-29 18:15 43.80003 7.71609 34019 ft 466 kts 46°
2026-04-29 18:15 43.84443 7.78053 34021 ft 455 kts 33°
2026-04-29 18:16 43.89472 7.83436 34020 ft 454 kts 32°
2026-04-29 18:16 43.94363 7.89011 34019 ft 459 kts 38°
2026-04-29 18:17 43.98701 7.95620 34020 ft 463 kts 43°
2026-04-29 18:17 44.03046 8.02358 34020 ft 462 kts 42°
2026-04-29 18:18 44.07354 8.09069 34020 ft 462 kts 42°
2026-04-29 18:18 44.11617 8.15787 34020 ft 463 kts 43°
2026-04-29 18:19 44.15896 8.22558 34020 ft 463 kts 43°
2026-04-29 18:19 44.20153 8.29323 34020 ft 463 kts 43°
2026-04-29 18:20 44.24409 8.36109 34020 ft 463 kts 43°
2026-04-29 18:20 44.28670 8.42923 34020 ft 462 kts 43°
2026-04-29 18:21 44.32901 8.49704 34020 ft 462 kts 43°
2026-04-29 18:21 44.37112 8.56471 34020 ft 462 kts 43°
2026-04-29 18:22 44.41326 8.63261 34020 ft 463 kts 43°
2026-04-29 18:22 44.45564 8.70106 34020 ft 463 kts 43°
2026-04-29 18:23 44.49611 8.76658 34020 ft 464 kts 43°
2026-04-29 18:23 44.54111 8.83962 34020 ft 463 kts 43°
2026-04-29 18:24 44.58343 8.90847 34020 ft 463 kts 43°
2026-04-29 18:24 44.62545 8.97703 34019 ft 459 kts 43°
2026-04-29 18:25 44.66698 9.04495 34020 ft 455 kts 43°
2026-04-29 18:25 44.70818 9.11247 34020 ft 452 kts 43°
2026-04-29 18:26 44.74934 9.18006 34016 ft 451 kts 43°
2026-04-29 18:26 44.79006 9.24711 34010 ft 451 kts 43°
2026-04-29 18:27 44.83091 9.31450 34005 ft 451 kts 43°
2026-04-29 18:27 44.87165 9.38191 33999 ft 451 kts 43°
2026-04-29 18:28 44.91227 9.44927 34000 ft 452 kts 43°
2026-04-29 18:28 44.95312 9.51719 33999 ft 451 kts 43°
2026-04-29 18:29 44.99382 9.58498 34001 ft 452 kts 43°
2026-04-29 18:29 45.03471 9.65317 33999 ft 454 kts 43°
2026-04-29 18:30 45.07565 9.72153 34000 ft 457 kts 43°
2026-04-29 18:30 45.11672 9.79078 34000 ft 459 kts 43°
2026-04-29 18:31 45.15786 9.86021 33999 ft 459 kts 42°
2026-04-29 18:31 45.19897 9.92905 33999 ft 458 kts 42°
2026-04-29 18:32 45.24007 9.99862 34000 ft 460 kts 43°
2026-04-29 18:32 45.30123 10.10255 34004 ft 459 kts 42°
2026-04-29 18:33 45.34199 10.17154 34024 ft 459 kts 42°
2026-04-29 18:33 45.38268 10.24112 34046 ft 459 kts 43°
2026-04-29 18:34 45.41651 10.29950 34064 ft 458 kts 43°
2026-04-29 18:34 45.46363 10.38003 34073 ft 459 kts 42°
2026-04-29 18:35 45.50416 10.44933 34073 ft 459 kts 43°
2026-04-29 18:35 45.54465 10.51933 34073 ft 460 kts 43°
2026-04-29 18:36 45.58477 10.58911 34074 ft 459 kts 43°
2026-04-29 18:36 45.62500 10.65879 34073 ft 459 kts 43°
2026-04-29 18:37 45.66565 10.72867 34100 ft 460 kts 43°
2026-04-29 18:37 45.70613 10.79916 34101 ft 464 kts 43°
2026-04-29 18:38 45.74629 10.86971 34101 ft 459 kts 43°
2026-04-29 18:38 45.78582 10.93870 34101 ft 452 kts 42°
2026-04-29 18:39 45.82522 11.00760 34101 ft 447 kts 41°
2026-04-29 18:39 45.86391 11.07553 34102 ft 443 kts 41°
2026-04-29 18:40 45.90241 11.14320 34110 ft 445 kts 41°
2026-04-29 18:40 45.94129 11.21180 34120 ft 446 kts 41°
2026-04-29 18:41 46.01860 11.34880 34127 ft 444 kts 41°
2026-04-29 18:42 46.05719 11.41740 34128 ft 445 kts 41°
2026-04-29 18:42 46.09598 11.48657 34128 ft 446 kts 41°
2026-04-29 18:43 46.13472 11.55579 34128 ft 446 kts 41°
2026-04-29 18:43 46.17312 11.62461 34128 ft 445 kts 41°
2026-04-29 18:44 46.21133 11.69321 34128 ft 446 kts 42°
2026-04-29 18:44 46.24984 11.76257 34128 ft 446 kts 42°
2026-04-29 18:45 46.28828 11.83196 34142 ft 447 kts 42°
2026-04-29 18:45 46.32693 11.90190 34158 ft 446 kts 42°
2026-04-29 18:46 46.36518 11.97131 34173 ft 445 kts 42°
2026-04-29 18:46 46.40334 12.04069 34182 ft 446 kts 42°
2026-04-29 18:47 46.44172 12.11064 34182 ft 446 kts 42°
2026-04-29 18:47 46.47976 12.18020 34182 ft 446 kts 42°
2026-04-29 18:48 46.51811 12.25047 34182 ft 445 kts 42°
2026-04-29 18:48 46.55616 12.32036 34181 ft 446 kts 42°
2026-04-29 18:49 46.59432 12.39063 34182 ft 446 kts 42°
2026-04-29 18:49 46.62903 12.45473 34182 ft 445 kts 42°
2026-04-29 18:50 46.67065 12.52918 34181 ft 429 kts 41°
2026-04-29 18:50 46.70635 12.59589 34182 ft 417 kts 41°
2026-04-29 18:51 46.72465 12.62791 34182 ft 406 kts 38°
2026-04-29 18:51 46.74325 12.65774 34181 ft 399 kts 37°
2026-04-29 18:51 46.77938 12.71639 34182 ft 389 kts 38°
2026-04-29 18:52 46.81469 12.77448 34182 ft 378 kts 38°
2026-04-29 18:52 46.83197 12.80284 33987 ft 378 kts 37°
2026-04-29 18:52 46.85024 12.83007 33678 ft 379 kts 35°
2026-04-29 18:53 46.86799 12.85859 33435 ft 385 kts 39°
2026-04-29 18:53 46.88529 12.88862 33206 ft 387 kts 39°
2026-04-29 18:53 46.91950 12.94651 33191 ft 375 kts 38°
2026-04-29 18:54 46.95314 13.00289 33200 ft 365 kts 37°
2026-04-29 18:54 46.97944 13.04691 33207 ft 358 kts 36°